Location: Joplin
(37.0842°N, 94.5131°W)
Time: 01:10:44
(UTC-06:00)

Hubble Space Telescope - Visible Passes

Search period start: 22 January 2019 00:00
Search period end: 01 February 2019 00:00
Orbit: 537 x 540 km, 28.5° (Epoch: 21 January)

Date Brightness Start Highest point End Pass type
(mag) Time Alt. Az. Time Alt. Az. Time Alt. Az.
22 Jan 2.3 05:34:05 24° S 05:34:27 24° S 05:37:48 10° SE visible
23 Jan 2.5 05:24:15 23° S 05:24:15 23° S 05:27:14 10° SE visible
24 Jan 2.8 05:14:24 20° SSE 05:14:24 20° SSE 05:16:36 10° SE visible
24 Jan 3.2 06:52:32 10° SW 06:53:55 11° SSW 06:55:20 10° S visible
25 Jan 3.2 05:04:34 16° SSE 05:04:34 16° SSE 05:05:56 10° SE visible
26 Jan 3.6 04:54:46 12° SSE 04:54:46 12° SSE 04:55:11 10° SSE visible
